TimeCST,TemperatureF,Dew PointF,Humidity,Sea Level PressureIn,VisibilityMPH,Wind Direction,Wind SpeedMPH,Gust SpeedMPH,PrecipitationIn,Events,Conditions,WindDirDegrees,DateUTC
12:15 AM,30.2,14.0,51,30.30,10.0,Calm,Calm,-,N/A,,Clear,0,2012-12-22 06:15:00
12:35 AM,30.2,14.0,51,30.29,10.0,West,3.5,-,N/A,,Clear,270,2012-12-22 06:35:00
12:55 AM,30.2,14.0,51,30.30,10.0,Calm,Calm,-,N/A,,Clear,0,2012-12-22 06:55:00
1:15 AM,28.4,14.0,55,30.30,10.0,Calm,Calm,-,N/A,,Clear,0,2012-12-22 07:15:00
1:35 AM,28.4,15.8,59,30.31,10.0,Calm,Calm,-,N/A,,Clear,0,2012-12-22 07:35:00
1:55 AM,30.2,14.0,51,30.31,10.0,Calm,Calm,-,N/A,,Clear,0,2012-12-22 07:55:00
2:15 AM,28.4,14.0,55,30.31,10.0,West,3.5,-,N/A,,Clear,270,2012-12-22 08:15:00
2:35 AM,28.4,15.8,59,30.31,10.0,West,3.5,-,N/A,,Clear,260,2012-12-22 08:35:00
2:55 AM,28.4,15.8,59,30.31,10.0,Calm,Calm,-,N/A,,Clear,0,2012-12-22 08:55:00
3:15 AM,28.4,15.8,59,30.32,10.0,Calm,Calm,-,N/A,,Clear,0,2012-12-22 09:15:00
3:35 AM,26.6,15.8,64,30.32,10.0,Calm,Calm,-,N/A,,Clear,0,2012-12-22 09:35:00
3:55 AM,26.6,17.6,69,30.31,10.0,Calm,Calm,-,N/A,,Clear,0,2012-12-22 09:55:00
4:15 AM,26.6,15.8,64,30.32,10.0,Calm,Calm,-,N/A,,Clear,0,2012-12-22 10:15:00
4:35 AM,23.0,17.6,80,30.32,10.0,Calm,Calm,-,N/A,,Clear,0,2012-12-22 10:35:00
4:55 AM,23.0,17.6,80,30.32,10.0,Calm,Calm,-,N/A,,Clear,0,2012-12-22 10:55:00
5:15 AM,23.0,19.4,86,30.32,10.0,Calm,Calm,-,N/A,,Clear,0,2012-12-22 11:15:00
5:35 AM,23.0,17.6,80,30.32,10.0,SSW,3.5,-,N/A,,Clear,210,2012-12-22 11:35:00
6:55 AM,21.2,17.6,86,30.33,20.0,SW,3.5,-,N/A,,Clear,230,2012-12-22 12:55:00
7:55 AM,24.8,19.4,80,30.33,20.0,SSE,5.8,-,N/A,,Clear,160,2012-12-22 13:55:00
8:55 AM,30.2,19.4,64,30.31,20.0,SSE,5.8,-,N/A,,Clear,160,2012-12-22 14:55:00
9:55 AM,33.8,19.4,56,30.30,20.0,SE,6.9,-,N/A,,Clear,140,2012-12-22 15:55:00
10:55 AM,37.4,19.4,48,30.28,20.0,SSE,5.8,-,N/A,,Clear,150,2012-12-22 16:55:00
11:55 AM,42.8,15.8,34,30.24,20.0,South,6.9,-,N/A,,Clear,190,2012-12-22 17:55:00
12:53 PM,44.6,15.8,31,30.21,20.0,South,11.5,-,N/A,,Clear,190,2012-12-22 18:53:00
1:52 PM,46.4,17.6,32,30.19,20.0,South,11.5,-,N/A,,Clear,180,2012-12-22 19:52:00
2:53 PM,46.4,17.6,32,30.16,20.0,South,11.5,-,N/A,,Clear,170,2012-12-22 20:53:00
3:54 PM,44.6,17.6,34,30.14,20.0,South,11.5,-,N/A,,Clear,190,2012-12-22 21:54:00
4:53 PM,39.2,19.4,45,30.13,20.0,South,9.2,-,N/A,,Partly Cloudy,180,2012-12-22 22:53:00
5:54 PM,39.2,21.2,49,30.10,20.0,South,8.1,-,N/A,,Partly Cloudy,170,2012-12-22 23:54:00
6:55 PM,33.8,23.0,65,30.10,10.0,South,6.9,-,N/A,,Clear,190,2012-12-23 00:55:00
7:15 PM,33.8,23.0,65,30.09,10.0,South,8.1,-,N/A,,Clear,180,2012-12-23 01:15:00
7:35 PM,35.6,23.0,60,30.08,10.0,South,9.2,-,N/A,,Clear,180,2012-12-23 01:35:00
7:55 PM,35.6,23.0,60,30.08,10.0,SSW,5.8,-,N/A,,Clear,200,2012-12-23 01:55:00
8:15 PM,35.6,23.0,60,30.07,10.0,South,5.8,-,N/A,,Clear,190,2012-12-23 02:15:00
8:35 PM,35.6,24.8,65,30.06,10.0,South,5.8,-,N/A,,Clear,190,2012-12-23 02:35:00
8:55 PM,37.4,23.0,56,30.06,10.0,SSW,8.1,-,N/A,,Clear,200,2012-12-23 02:55:00
9:15 PM,37.4,24.8,60,30.06,10.0,SSW,9.2,-,N/A,,Clear,200,2012-12-23 03:15:00
9:35 PM,35.6,26.6,70,30.05,10.0,South,11.5,-,N/A,,Clear,190,2012-12-23 03:35:00
9:55 PM,39.2,26.6,61,30.04,10.0,South,10.4,-,N/A,,Clear,190,2012-12-23 03:55:00
10:15 PM,39.2,26.6,61,30.04,10.0,SSW,9.2,-,N/A,,Clear,200,2012-12-23 04:15:00
10:35 PM,37.4,26.6,65,30.04,10.0,South,9.2,-,N/A,,Clear,190,2012-12-23 04:35:00
10:55 PM,37.4,26.6,65,30.04,10.0,SSW,9.2,-,N/A,,Clear,200,2012-12-23 04:55:00
11:15 PM,37.4,28.4,70,30.03,10.0,SSW,8.1,-,N/A,,Clear,210,2012-12-23 05:15:00
11:35 PM,39.2,28.4,65,30.03,10.0,SSW,9.2,-,N/A,,Clear,210,2012-12-23 05:35:00
11:55 PM,39.2,28.4,65,30.02,10.0,SSW,9.2,-,N/A,,Clear,200,2012-12-23 05:55:00